{"data":{"norad_id":67146,"epoch":"2026-09-20T08:08:46.407264Z","epoch_age_seconds":120077,"freshness":"FRESH","line1":"1 67146U 25301P   26263.33942601  .00001566  00000+0  23428-3 0  9991","line2":"2 67146  51.9006 292.3573 0000377  51.8005 308.2992 14.79942375 42622","mean_motion":14.79942375,"eccentricity":3.77e-5,"inclination_deg":51.9006,"raan_deg":292.3573,"arg_perigee_deg":51.8005,"mean_anomaly_deg":308.2992,"bstar":0.00023428,"rev_number":4262,"period_min":97.301085793965,"perigee_km":629.24184663694,"apogee_km":629.77022292176,"semimajor_km":7007.6430347794,"source":"CELESTRAK","updated_at":"2026-09-21T09:00:16.457790Z"}}